User: anonymous   Login
Location: Newark
(55.2831°N, 38.7366°E)
Time: 02:59:42
(UTC+00:00)
Language:

POLYITAN 1 - Orbit

View from above orbital plane
View from above orbital plane
View from above satellite
View from above satellite

Ground track
Ground track

The orbit data is extracted from the following two-line orbital elements,

1 40042U 14033AJ  19296.73254337  .00000333  00000-0  41631-4 0  9990
2 40042  97.9128 216.5782 0014695 357.3793   2.7344 14.88720992290136
Epoch (UTC): 23 October 2019 17:34:51
Eccentricity: 0.0014695
inclination: 97.9128°
perigee height: 591 km
apogee height: 612 km
right ascension of ascending node: 216.5782°
argument of perigee: 357.3793°
revolutions per day: 14.88720992
mean anomaly at epoch: 2.7344°
orbit number at epoch: 29013

The dashed part of the orbit path shows where the satellite is in the earth's shadow,  

DLR